| time (UTC) | temp F | wind direction | speed knots | gust knots | rain 1hr in | rain 24hr in | rain mn in | humidity % | barometer mb |
| 20260901054559 | 43 | 290 | 0.0 | 0.0 | 0.00 | 0.33 | 0.33 | 96 | 1017.3 |
| 20260901053121 | 43 | 290 | 0.0 | 0.0 | 0.00 | 0.33 | 0.33 | 96 | 1017.4 |
| 20260901051609 | 44 | 290 | 0.0 | 0.0 | 0.00 | 0.33 | 0.33 | 96 | 1017.3 |
| 20260901050055 | 44 | 290 | 0.0 | 0.0 | 0.00 | 0.33 | 0.33 | 96 | 1017.3 |
| 20260901044606 | 44 | 290 | 0.0 | 0.0 | 0.00 | 0.40 | 0.33 | 96 | 1017.3 |
| 20260901043054 | 44 | 290 | 0.0 | 0.0 | 0.00 | 0.40 | 0.33 | 96 | 1017.1 |
| 20260901041553 | 44 | 290 | 0.0 | 0.0 | 0.00 | 0.40 | 0.33 | 96 | 1017.1 |
| 20260901040108 | 45 | 290 | 0.0 | 0.0 | 0.00 | 0.40 | 0.33 | 95 | 1016.9 |
| 20260901034604 | 45 | 290 | 0.0 | 0.0 | 0.00 | 0.40 | 0.33 | 95 | 1016.6 |
| 20260901033045 | 46 | 290 | 0.0 | 0.0 | 0.00 | 0.40 | 0.33 | 95 | 1016.5 |
| 20260901031544 | 46 | 290 | 0.0 | 0.0 | 0.00 | 0.40 | 0.33 | 95 | 1015.8 |
| 20260901030043 | 46 | 290 | 0.0 | 0.0 | 0.00 | 0.40 | 0.33 | 95 | 1015.6 |
| 20260901024551 | 46 | 290 | 0.0 | 0.0 | 0.00 | 0.53 | 0.33 | 95 | 1015.4 |
| 20260901023056 | 46 | 290 | 0.0 | 0.0 | 0.00 | 0.53 | 0.33 | 94 | 1015.1 |
| 20260901021540 | 47 | 290 | 0.0 | 0.0 | 0.00 | 0.53 | 0.33 | 94 | 1014.6 |
| 20260901020044 | 48 | 290 | 0.0 | 0.0 | 0.00 | 0.53 | 0.33 | 93 | 1014.5 |
| 20260901014550 | 49 | 290 | 0.0 | 0.0 | 0.00 | 0.56 | 0.33 | 92 | 1014.5 |
| 20260901013039 | 50 | 290 | 0.0 | 0.0 | 0.00 | 0.56 | 0.33 | 91 | 1014.5 |
| 20260901011539 | 50 | 290 | 0.0 | 0.0 | 0.00 | 0.56 | 0.33 | 92 | 1014.5 |
| 20260901010038 | 51 | 290 | 0.0 | 0.0 | 0.00 | 0.56 | 0.33 | 90 | 1014.3 |
| 20260901004538 | 51 | 290 | 0.0 | 0.0 | 0.00 | 0.56 | 0.33 | 90 | 1014.8 |
| 20260901003038 | 51 | 290 | 0.0 | 0.0 | 0.00 | 0.56 | 0.33 | 91 | 1014.9 |
| 20260901001537 | 51 | 290 | 0.0 | 0.0 | 0.00 | 0.56 | 0.33 | 90 | 1015.1 |
| 20260901000035 | 52 | 290 | 0.0 | 0.9 | 0.00 | 0.56 | 0.33 | 90 | 1015.3 |
| 20260831234540 | 52 | 142 | 0.0 | 2.6 | 0.00 | 0.56 | 0.33 | 88 | 1015.1 |
| 20260831233034 | 51 | 110 | 0.0 | 0.9 | 0.03 | 0.56 | 0.33 | 88 | 1015.0 |
| 20260831231534 | 52 | 110 | 0.0 | 0.9 | 0.04 | 0.56 | 0.33 | 88 | 1014.8 |
| 20260831230033 | 52 | 135 | 0.0 | 5.2 | 0.06 | 0.56 | 0.33 | 86 | 1014.6 |
| 20260831224533 | 52 | 141 | 0.0 | 1.7 | 0.06 | 0.69 | 0.33 | 87 | 1014.8 |
| 20260831223036 | 53 | 167 | 0.0 | 0.0 | 0.03 | 0.66 | 0.30 | 90 | 1015.1 |
| 20260831221532 | 53 | 139 | 0.0 | 1.7 | 0.02 | 0.65 | 0.28 | 87 | 1014.9 |
| 20260831220031 | 54 | 323 | 0.0 | 1.7 | 0.02 | 0.63 | 0.27 | 86 | 1014.7 |
| 20260831214531 | 54 | 131 | 0.0 | 3.5 | 0.02 | 0.63 | 0.27 | 91 | 1014.7 |
| 20260831213030 | 53 | 115 | 0.0 | 0.9 | 0.03 | 0.63 | 0.27 | 91 | 1014.7 |
| 20260831211531 | 52 | 110 | 0.0 | 0.9 | 0.03 | 0.63 | 0.27 | 91 | 1014.6 |
| 20260831210029 | 53 | 95 | 0.0 | 0.0 | 0.02 | 0.61 | 0.25 | 91 | 1014.6 |
| 20260831204529 | 53 | 189 | 0.0 | 0.0 | 0.04 | 0.61 | 0.25 | 91 | 1014.6 |
| 20260831203029 | 53 | 189 | 0.0 | 0.0 | 0.07 | 0.60 | 0.24 | 90 | 1014.9 |
| 20260831201629 | 53 | 189 | 0.0 | 0.0 | 0.11 | 0.60 | 0.24 | 93 | 1014.8 |
| 20260831200039 | 52 | 192 | 0.0 | 0.0 | 0.14 | 0.59 | 0.23 | 93 | 1015.0 |
| 20260831194528 | 52 | 319 | 0.0 | 0.0 | 0.13 | 0.56 | 0.21 | 93 | 1015.7 |
| 20260831193036 | 52 | 93 | 0.0 | 1.7 | 0.09 | 0.53 | 0.17 | 91 | 1015.7 |
| 20260831191532 | 53 | 124 | 0.0 | 0.9 | 0.04 | 0.48 | 0.12 | 88 | 1015.5 |
| 20260831190025 | 54 | 146 | 0.0 | 0.0 | 0.01 | 0.45 | 0.09 | 85 | 1015.1 |
| 20260831184525 | 55 | 113 | 0.0 | 2.6 | 0.00 | 0.44 | 0.08 | 80 | 1015.0 |
| 20260831183023 | 56 | 109 | 0.0 | 1.7 | 0.00 | 0.44 | 0.08 | 78 | 1015.2 |
| 20260831181525 | 56 | 96 | 0.0 | 0.9 | 0.00 | 0.44 | 0.08 | 79 | 1015.2 |
| 20260831180033 | 56 | 71 | 0.0 | 0.9 | 0.00 | 0.44 | 0.08 | 80 | 1015.3 |
| 20260831174524 | 56 | 239 | 0.0 | 0.9 | 0.00 | 0.44 | 0.08 | 78 | 1015.3 |
| 20260831173021 | 57 | 230 | 0.0 | 0.9 | 0.00 | 0.44 | 0.08 | 77 | 1015.5 |
| 20260831171519 | 56 | 23 | 0.0 | 0.9 | 0.00 | 0.44 | 0.08 | 80 | 1015.4 |
| 20260831170019 | 56 | 44 | 0.0 | 3.5 | 0.00 | 0.44 | 0.08 | 76 | 1015.5 |
| 20260831164535 | 56 | 130 | 0.0 | 4.3 | 0.00 | 0.44 | 0.08 | 80 | 1015.3 |
| 20260831163017 | 56 | 172 | 0.0 | 2.6 | 0.00 | 0.44 | 0.08 | 79 | 1015.2 |
| 20260831161515 | 55 | 307 | 0.0 | 1.7 | 0.00 | 0.44 | 0.08 | 81 | 1015.0 |
| 20260831160012 | 55 | 174 | 0.0 | 1.7 | 0.00 | 0.44 | 0.08 | 88 | 1014.9 |
| 20260831154508 | 53 | 129 | 0.0 | 0.9 | 0.00 | 0.44 | 0.08 | 91 | 1015.0 |
| 20260831153003 | 51 | 264 | 0.0 | 0.0 | 0.00 | 0.44 | 0.08 | 94 | 1014.8 |
| 20260831151501 | 50 | 174 | 0.0 | 0.0 | 0.00 | 0.44 | 0.08 | 96 | 1014.9 |
| 20260831150058 | 50 | 174 | 0.0 | 0.0 | 0.00 | 0.44 | 0.08 | 97 | 1014.9 |
| 20260831144608 | 49 | 174 | 0.0 | 0.0 | 0.00 | 0.44 | 0.08 | 96 | 1014.9 |
| 20260831143101 | 48 | 174 | 0.0 | 0.0 | 0.00 | 0.44 | 0.08 | 97 | 1015.0 |
| 20260831141602 | 48 | 172 | 0.0 | 0.0 | 0.00 | 0.44 | 0.08 | 97 | 1014.8 |
| 20260831140050 | 48 | 172 | 0.0 | 0.0 | 0.00 | 0.44 | 0.08 | 97 | 1014.7 |
| 20260831134554 | 47 | 172 | 0.0 | 0.0 | 0.00 | 0.44 | 0.08 | 97 | 1014.6 |
| 20260831133049 | 47 | 172 | 0.0 | 0.0 | 0.00 | 0.44 | 0.08 | 96 | 1014.6 |
| 20260831131552 | 47 | 172 | 0.0 | 0.0 | 0.00 | 0.44 | 0.08 | 96 | 1014.1 |
| 20260831130049 | 47 | 172 | 0.0 | 0.0 | 0.00 | 0.44 | 0.08 | 96 | 1014.2 |
| 20260831124547 | 47 | 172 | 0.0 | 0.0 | 0.00 | 0.44 | 0.08 | 96 | 1014.0 |
| 20260831123046 | 47 | 172 | 0.0 | 0.0 | 0.00 | 0.44 | 0.08 | 96 | 1014.2 |
| 20260831121545 | 47 | 172 | 0.0 | 0.0 | 0.00 | 0.44 | 0.08 | 96 | 1013.9 |
| 20260831120044 | 47 | 127 | 0.0 | 0.0 | 0.00 | 0.44 | 0.08 | 96 | 1013.9 |
| 20260831114544 | 47 | 127 | 0.0 | 0.0 | 0.00 | 0.44 | 0.08 | 96 | 1014.0 |
| 20260831113041 | 47 | 257 | 0.0 | 0.0 | 0.00 | 0.44 | 0.08 | 96 | 1014.2 |
| 20260831111552 | 47 | 262 | 0.0 | 0.0 | 0.00 | 0.44 | 0.08 | 96 | 1014.7 |
| 20260831110048 | 47 | 262 | 0.0 | 0.0 | 0.00 | 0.44 | 0.08 | 96 | 1015.0 |
| 20260831104554 | 47 | 262 | 0.0 | 0.0 | 0.01 | 0.44 | 0.08 | 96 | 1015.8 |
| 20260831103040 | 47 | 262 | 0.0 | 0.0 | 0.01 | 0.44 | 0.08 | 96 | 1015.7 |
| 20260831101542 | 47 | 262 | 0.0 | 0.0 | 0.01 | 0.44 | 0.08 | 96 | 1015.4 |
| 20260831100045 | 47 | 262 | 0.0 | 0.0 | 0.01 | 0.44 | 0.08 | 96 | 1015.2 |
| 20260831094538 | 47 | 221 | 0.0 | 0.9 | 0.00 | 0.43 | 0.07 | 96 | 1015.2 |
| 20260831093046 | 47 | 223 | 0.0 | 0.0 | 0.01 | 0.43 | 0.07 | 96 | 1015.2 |
| 20260831091536 | 47 | 223 | 0.0 | 0.0 | 0.02 | 0.43 | 0.07 | 96 | 1014.8 |
| 20260831090041 | 47 | 223 | 0.0 | 0.0 | 0.05 | 0.43 | 0.07 | 96 | 1014.5 |
| 20260831084535 | 47 | 248 | 0.0 | 0.0 | 0.06 | 0.43 | 0.07 | 96 | 1014.9 |
| 20260831083035 | 47 | 265 | 0.0 | 0.9 | 0.05 | 0.42 | 0.06 | 96 | 1015.6 |
| 20260831081534 | 47 | 138 | 0.0 | 0.0 | 0.05 | 0.41 | 0.05 | 96 | 1015.8 |
| 20260831080036 | 47 | 138 | 0.0 | 0.9 | 0.02 | 0.38 | 0.02 | 95 | 1016.2 |
| 20260831074533 | 47 | 138 | 0.0 | 0.0 | 0.01 | 0.37 | 0.01 | 96 | 1015.9 |
| 20260831073028 | 47 | 138 | 0.0 | 0.0 | 0.01 | 0.37 | 0.01 | 95 | 1015.6 |
| 20260831071530 | 47 | 138 | 0.0 | 0.0 | 0.00 | 0.36 | 0.00 | 95 | 1014.9 |
| 20260831070024 | 47 | 269 | 0.0 | 0.0 | 0.00 | 0.36 | 0.00 | 95 | 1014.6 |
| 20260831064524 | 47 | 269 | 0.0 | 0.0 | 0.00 | 0.36 | 0.00 | 95 | 1014.9 |
| 20260831063021 | 47 | 269 | 0.0 | 0.0 | 0.00 | 0.36 | 0.00 | 95 | 1014.7 |
| 20260831061520 | 47 | 269 | 0.0 | 0.0 | 0.00 | 0.36 | 0.00 | 95 | 1014.5 |
| 20260831060020 | 47 | 269 | 0.0 | 0.0 | 0.00 | 0.36 | 0.00 | 95 | 1014.3 |